Погода в Самойловке

Россия / Саратовская область     51°10′50″N   43°42′27″E
темп.,
°C
ветер,
м/с
пор.,
м/с
влажн.,
%
обл.,
%
осадки,
мм/ч
давл.,
гПа
погр.,
м
15 мая, сб
сб1501:00+20ююв7184872 0.0 1015410
04:00+17ююв61651100 0.0 1015303
07:00+16ююв61559100 0.0 1016263
10:00+21ююв61451100 0.0 1016542
13:00+26ююв711395 0.0 10161054
16:00+27ююв6144280 0.0 10151791
19:00+24ююв385846 0.0 1014168
22:00+19ююв456214 0.0 101559
16 мая, вс
вс1601:00+17ю33636 0.0 101518
04:00+15ю336441 0.0 101540
07:00+16ююв36655 0.0 1016102
10:00+22ююв694795 0.0 1016479
13:00+25ю5840100 0.0 1016909
16:00+27ююв4738100 0.0 10151567
19:00+25вюв225685 0.0 101430
22:00+20в4561100 0.0 101457
17 мая, пн
пн1701:00+18юв41355100 0.0 1015221
04:00+16юв4849100 0.0 1015103
07:00+16юв4105892 0.0 1015162
10:00+22юв61148100 0.0 1015390
13:00+27юв710385 0.0 1015829
16:00+28юв71141100 0.0 10141803
19:00+24вюв41058100 0.0 1013224
22:00+19вюв5144958 0.0 1014218
18 мая, вт
вт1801:00+18вюв5164887 0.0 1013254
04:00+16юв410535 0.0 1013143
07:00+16юв4106111 0.0 1013169
10:00+23юв6104242 0.0 1013447
13:00+27ююв793591 0.0 10121046
16:00+28ююв61139100 0.0 10111734
19:00+25вюв3356100 0.0 101047
22:00+22юв61645100 0.0 1010325
19 мая, ср
ср1901:00+18ююв374881 0.0 1011103
04:00+16зсз3779100 0.0 1012146
07:00+17з5885100 0.2 1013263
10:00+21ю24653 0.6 1013404
13:00+25ююз56525 0.0 10131461
16:00+26юз454490 0.0 10141829
19:00+24юз235932 0.0 1014108
22:00+19ю2263100 0.0 101511